Kazan, Russia

11:59 AM MSK on December 11, 2019 (GMT +0300)
Kazan

Weather History for UWKD - October, 2019

Change the Weather History Date:

Saturday, October 5, 2019

  Actual Average (WUND) Record (WUND)
Temperature  
Mean Temperature 53 °F -  
Max Temperature 60 °F - - (-1)
Min Temperature 46 °F - - (-1)
Degree Days  
Heating Degree Days 12    
Growing Degree Days 3 (Base 50)    
Moisture  
Dew Point 45 °F    
Average Humidity 70    
Maximum Humidity 100    
Minimum Humidity 40    
Precipitation  
Precipitation 0.00 in - - ()
Sea Level Pressure  
Sea Level Pressure 29.80 in    
Wind  
Wind Speed 11 mph ()    
Max Wind Speed 22 mph    
Max Gust Speed 34 mph    
Visibility 5.4 miles    
Events Rain    
Averages and records for this station are not official NWS values.
T = Trace of Precipitation, MM = Missing Value Source: Averaged Metar Reports

Daily Weather History Graph

Daily Weather History Graph

Search for Another Location

Airport or City:

Astronomy

Oct. 05, 2019 Rise Set
Actual Time 5:52 AM MSK 5:09 PM MSK
Civil Twilight 5:15 AM MSK 5:45 PM MSK
Nautical Twilight 4:32 AM MSK 6:28 PM MSK
Astronomical Twilight 3:48 AM MSK 7:12 PM MSK
Moon 2:00 PM MSK (10/5) 9:09 PM MSK (10/5)
Length of Visible Light 12h 30m
Length of Day
11h 16m
Waxing Crescent, 47% of the Moon is Illuminated
Oct 5
Waxing Crescent
Oct 5
First Quarter
Oct 14
Full
Oct 21
Last Quarter
Oct 28
New

Hourly Weather History & Observations

Time (MSK) Temp. Windchill Dew Point Humidity Pressure Visibility Wind Dir Wind Speed Gust Speed Precip Events Conditions
12:00 AM 60 °F - 51 °F 63% 29.87 in 6 mi SE 4.5 mph - -   Partly Cloudy
12:00 AM 59.0 °F - 48.2 °F 67% 29.86 in - South 13.4 mph - N/A   Clear
12:30 AM 57.2 °F - 46.4 °F 67% 29.86 in - South 8.9 mph 20.1 mph N/A   Clear
1:00 AM 57.2 °F - 46.4 °F 67% 29.86 in - SSE 8.9 mph - N/A   Clear
1:30 AM 57.2 °F - 46.4 °F 67% 29.86 in - SSE 4.5 mph - N/A   Clear
2:00 AM 59.0 °F - 44.6 °F 59% 29.83 in - South 13.4 mph - N/A   Clear
2:30 AM 59.0 °F - 44.6 °F 59% 29.83 in - South 13.4 mph - N/A   Clear
3:00 AM 59 °F - 46 °F 51% 29.84 in 6 mi SSE 4.5 mph - -   Mostly Cloudy
3:00 AM 59.0 °F - 44.6 °F 59% 29.83 in - South 11.2 mph - N/A   Clear
3:30 AM 59.0 °F - 44.6 °F 59% 29.83 in - South 13.4 mph - N/A   Clear
4:00 AM 57.2 °F - 42.8 °F 59% 29.83 in - South 13.4 mph - N/A   Clear
4:30 AM 57.2 °F - 42.8 °F 59% 29.83 in - SSE 8.9 mph - N/A   Clear
5:30 AM 55.4 °F - 41.0 °F 58% 29.80 in - SSE 13.4 mph - N/A   Clear
6:00 AM 56 °F - 42 °F 48% 29.80 in 6 mi SE 8.9 mph - -  
6:00 AM 53.6 °F - 41.0 °F 62% 29.80 in - SSE 11.2 mph - N/A   Clear
6:30 AM 53.6 °F - 39.2 °F 58% 29.77 in - SSE 11.2 mph - N/A   Clear
7:00 AM 55.4 °F - 39.2 °F 54% 29.77 in - SSE 17.9 mph 29.1 mph N/A   Clear
7:30 AM 55.4 °F - 39.2 °F 54% 29.77 in - SSE 17.9 mph 29.1 mph N/A   Clear
8:00 AM 55.4 °F - 39.2 °F 54% 29.74 in - South 20.1 mph 31.3 mph N/A   Clear
8:30 AM 55.4 °F - 39.2 °F 54% 29.74 in - South 22.4 mph 33.6 mph N/A   Clear
9:00 AM 57 °F - 39 °F 40% 29.76 in 6 mi SSE 11.2 mph - -   Overcast
9:00 AM 57.2 °F - 39.2 °F 51% 29.74 in - South 17.9 mph 29.1 mph N/A   Clear
9:30 AM 59.0 °F - 39.2 °F 48% 29.74 in - South 22.4 mph 33.6 mph N/A   Clear
10:00 AM 57.2 °F - 39.2 °F 51% 29.74 in - SSE 17.9 mph 29.1 mph N/A   Clear
10:30 AM 57.2 °F - 39.2 °F 51% 29.74 in - SSE 17.9 mph 29.1 mph N/A   Clear
11:00 AM 59.0 °F - 41.0 °F 51% 29.74 in 6.2 mi SSE 15.7 mph 26.8 mph N/A   Mostly Cloudy
11:30 AM 59.0 °F - 42.8 °F 55% 29.74 in 6.2 mi South 17.9 mph 29.1 mph N/A   Mostly Cloudy
12:00 PM 59 °F - 46 °F 51% 29.73 in 6 mi South 4.5 mph - - Rain Light Rain
12:00 PM 59.0 °F - 46.4 °F 63% 29.71 in 6.2 mi South 17.9 mph 29.1 mph N/A Rain Light Rain Showers
12:30 PM 55.4 °F - 48.2 °F 77% 29.71 in 5.0 mi South 17.9 mph 29.1 mph N/A Rain Light Rain Showers
1:00 PM 55.4 °F - 48.2 °F 77% 29.71 in 5.0 mi South 20.1 mph 31.3 mph N/A Rain Light Rain Showers
1:30 PM 55.4 °F - 50.0 °F 82% 29.74 in 4.3 mi South 17.9 mph 29.1 mph N/A Rain Light Rain Showers
2:00 PM 55.4 °F - 50.0 °F 82% 29.74 in 6.2 mi South 17.9 mph 29.1 mph N/A Rain Light Rain Showers
2:30 PM 53.6 °F - 48.2 °F 82% 29.74 in 6.2 mi South 15.7 mph 26.8 mph N/A   Mostly Cloudy
3:00 PM 54 °F - 51 °F 84% 29.76 in 6 mi South 6.7 mph - - Rain Light Rain
3:00 PM 53.6 °F - 48.2 °F 82% 29.74 in 5.6 mi South 15.7 mph 26.8 mph N/A Rain Light Rain Showers
3:30 PM 51.8 °F - 48.2 °F 88% 29.77 in 5.6 mi SSW 13.4 mph - N/A Rain Light Rain Showers
4:00 PM 51.8 °F - 48.2 °F 88% 29.77 in 4.3 mi South 13.4 mph - N/A Rain Light Rain Showers
4:30 PM 53.6 °F - 48.2 °F 82% 29.77 in 6.2 mi South 13.4 mph - N/A Rain Light Rain Showers
5:00 PM 53.6 °F - 50.0 °F 88% 29.77 in 6.2 mi South 11.2 mph - N/A Rain Light Rain Showers
6:00 PM 54 °F - 54 °F 98% 29.82 in 6 mi West 4.5 mph - -   Overcast
6:30 PM 53.6 °F - 51.8 °F 94% 29.80 in 5.0 mi NW 11.2 mph - N/A Rain Light Rain
7:00 PM 51.8 °F - 50.0 °F 94% 29.83 in - NW 13.4 mph - N/A Rain Light Rain
7:30 PM 50.0 °F - 48.2 °F 94% 29.83 in 1.4 mi NW 13.4 mph - N/A Rain Light Rain
8:30 PM 48.2 °F - 46.4 °F 93% 29.86 in 2.5 mi NNW 11.2 mph - N/A Rain Light Rain
9:00 PM 47 °F - 47 °F 100% 29.91 in 6 mi NNW 4.5 mph - - Rain Light Rain
9:00 PM 48.2 °F - 46.4 °F 93% 29.89 in 3.1 mi NNW 8.9 mph - N/A Rain Light Rain
9:30 PM 48.2 °F - 44.6 °F 87% 29.89 in 3.1 mi NNW 11.2 mph - N/A Rain Light Rain
10:00 PM 48.2 °F - 44.6 °F 87% 29.89 in 6.2 mi North 11.2 mph - N/A Rain Light Rain
10:30 PM 46.4 °F 42.0 °F 44.6 °F 93% 29.89 in 6.2 mi North 8.9 mph - N/A Rain Light Rain
11:00 PM 48.2 °F - 44.6 °F 87% 29.92 in 6.2 mi NNW 8.9 mph - N/A   Mostly Cloudy
11:30 PM 48.2 °F - 44.6 °F 87% 29.89 in 6.2 mi North 8.9 mph - N/A   Mostly Cloudy